Time,TemperatureF,DewpointF,PressureIn,WindDirection,WindDirectionDegrees,WindSpeedMPH,WindSpeedGustMPH,Humidity,HourlyPrecipIn,Conditions,Clouds,dailyrainin,SoftwareType,DateUTC
2013-06-05 00:02:00,56.0,43.0,30.04,WSW,251,0.0,0.0,61,0.00,,,0.00,,2013-06-05 04:02:00,
2013-06-05 00:13:00,56.0,43.0,30.04,WSW,251,0.0,0.0,61,0.00,,,0.00,,2013-06-05 04:13:00,
2013-06-05 00:23:00,56.0,41.0,30.04,WSW,251,0.0,0.0,57,0.00,,,0.00,,2013-06-05 04:23:00,
2013-06-05 00:33:00,56.0,44.0,30.05,WSW,251,0.0,0.0,63,0.00,,,0.00,,2013-06-05 04:33:00,
2013-06-05 00:42:00,56.0,44.0,30.05,WSW,251,0.0,0.0,63,0.00,,,0.00,,2013-06-05 04:42:00,
2013-06-05 00:53:00,55.0,42.0,30.05,WSW,251,0.0,0.0,62,0.00,,,0.00,,2013-06-05 04:53:00,
2013-06-05 01:02:00,55.0,42.0,30.04,WSW,251,0.0,0.0,61,0.00,,,0.00,,2013-06-05 05:02:00,
2013-06-05 01:12:00,55.0,42.0,30.04,WSW,251,0.0,0.0,61,0.00,,,0.00,,2013-06-05 05:12:00,
2013-06-05 01:22:00,55.0,41.0,30.04,NNE,30,0.0,3.0,58,0.00,,,0.00,,2013-06-05 05:22:00,
2013-06-05 01:32:00,56.0,39.0,30.03,North,360,0.0,2.0,53,0.00,,,0.00,,2013-06-05 05:32:00,
2013-06-05 01:42:00,56.0,39.0,30.03,North,360,0.0,2.0,53,0.00,,,0.00,,2013-06-05 05:42:00,
2013-06-05 01:52:00,57.0,39.0,30.04,NE,50,0.0,4.0,51,0.00,,,0.00,,2013-06-05 05:52:00,
2013-06-05 02:02:00,56.0,38.0,30.03,North,360,0.0,3.0,51,0.00,,,0.00,,2013-06-05 06:02:00,
2013-06-05 02:12:00,56.0,38.0,30.03,North,360,0.0,3.0,51,0.00,,,0.00,,2013-06-05 06:12:00,
2013-06-05 02:22:00,56.0,39.0,30.04,NE,46,0.0,3.0,52,0.00,,,0.00,,2013-06-05 06:22:00,
2013-06-05 02:32:00,56.0,39.0,30.04,NE,46,0.0,1.0,53,0.00,,,0.00,,2013-06-05 06:32:00,
2013-06-05 02:42:00,56.0,39.0,30.04,NE,46,0.0,1.0,53,0.00,,,0.00,,2013-06-05 06:42:00,
2013-06-05 02:52:00,55.0,40.0,30.04,NE,46,0.0,0.0,57,0.00,,,0.00,,2013-06-05 06:52:00,
2013-06-05 03:02:00,54.0,39.0,30.04,NE,46,0.0,0.0,57,0.00,,,0.00,,2013-06-05 07:02:00,
2013-06-05 03:12:00,54.0,39.0,30.04,NE,46,0.0,0.0,57,0.00,,,0.00,,2013-06-05 07:12:00,
2013-06-05 03:22:00,53.0,38.0,30.04,NE,46,0.0,1.0,57,0.00,,,0.00,,2013-06-05 07:22:00,
2013-06-05 03:32:00,53.0,39.0,30.04,NE,46,0.0,0.0,59,0.00,,,0.00,,2013-06-05 07:32:00,
2013-06-05 03:42:00,53.0,39.0,30.04,NE,46,0.0,0.0,59,0.00,,,0.00,,2013-06-05 07:42:00,
2013-06-05 03:52:00,53.0,39.0,30.04,East,87,0.0,1.0,58,0.00,,,0.00,,2013-06-05 07:52:00,
2013-06-05 04:02:00,53.0,41.0,30.04,East,88,0.0,1.0,64,0.00,,,0.00,,2013-06-05 08:02:00,
2013-06-05 04:12:00,53.0,41.0,30.04,East,88,0.0,1.0,64,0.00,,,0.00,,2013-06-05 08:12:00,
2013-06-05 04:22:00,52.0,40.0,30.05,East,88,0.0,0.0,64,0.00,,,0.00,,2013-06-05 08:22:00,
2013-06-05 04:32:00,51.0,40.0,30.05,East,88,0.0,0.0,65,0.00,,,0.00,,2013-06-05 08:32:00,
2013-06-05 04:42:00,51.0,40.0,30.05,East,88,0.0,0.0,65,0.00,,,0.00,,2013-06-05 08:42:00,
2013-06-05 04:52:00,50.0,38.0,30.05,East,88,0.0,0.0,64,0.00,,,0.00,,2013-06-05 08:52:00,
2013-06-05 05:02:00,50.0,39.0,30.05,East,88,0.0,1.0,65,0.00,,,0.00,,2013-06-05 09:02:00,
2013-06-05 05:12:00,50.0,39.0,30.05,East,88,0.0,1.0,65,0.00,,,0.00,,2013-06-05 09:12:00,
2013-06-05 05:22:00,50.0,39.0,30.05,East,88,0.0,0.0,66,0.00,,,0.00,,2013-06-05 09:22:00,
2013-06-05 05:33:00,50.0,40.0,30.06,East,88,0.0,0.0,69,0.00,,,0.00,,2013-06-05 09:33:00,
2013-06-05 05:43:00,50.0,40.0,30.06,East,88,0.0,0.0,69,0.00,,,0.00,,2013-06-05 09:43:00,
2013-06-05 05:53:00,49.0,39.0,30.07,East,88,0.0,0.0,69,0.00,,,0.00,,2013-06-05 09:53:00,
2013-06-05 06:03:00,49.0,40.0,30.07,East,88,0.0,0.0,70,0.00,,,0.00,,2013-06-05 10:03:00,
2013-06-05 06:12:00,49.0,40.0,30.07,East,88,0.0,0.0,70,0.00,,,0.00,,2013-06-05 10:12:00,
2013-06-05 06:22:00,48.0,40.0,30.08,East,88,0.0,1.0,73,0.00,,,0.00,,2013-06-05 10:22:00,
2013-06-05 06:33:00,48.0,40.0,30.09,East,88,0.0,0.0,74,0.00,,,0.00,,2013-06-05 10:33:00,
2013-06-05 06:42:00,48.0,40.0,30.09,East,88,0.0,0.0,74,0.00,,,0.00,,2013-06-05 10:42:00,
2013-06-05 06:52:00,48.0,41.0,30.09,East,88,0.0,0.0,77,0.00,,,0.00,,2013-06-05 10:52:00,
2013-06-05 07:02:00,48.0,41.0,30.10,NNW,343,0.0,0.0,76,0.00,,,0.00,,2013-06-05 11:02:00,
2013-06-05 07:12:00,48.0,41.0,30.10,NNW,343,0.0,0.0,76,0.00,,,0.00,,2013-06-05 11:12:00,
2013-06-05 07:22:00,49.0,42.0,30.11,NNW,343,0.0,0.0,78,0.00,,,0.00,,2013-06-05 11:22:00,
2013-06-05 07:33:00,50.0,43.0,30.11,NNW,343,0.0,0.0,77,0.00,,,0.00,,2013-06-05 11:33:00,
2013-06-05 07:42:00,50.0,43.0,30.11,NNW,343,0.0,0.0,77,0.00,,,0.00,,2013-06-05 11:42:00,
2013-06-05 07:52:00,51.0,43.0,30.11,NNW,343,0.0,0.0,74,0.00,,,0.00,,2013-06-05 11:52:00,
2013-06-05 08:02:00,55.0,45.0,30.12,NNW,343,0.0,0.0,70,0.00,,,0.00,,2013-06-05 12:02:00,
2013-06-05 08:12:00,55.0,45.0,30.12,NNW,343,0.0,0.0,70,0.00,,,0.00,,2013-06-05 12:12:00,
2013-06-05 08:22:00,56.0,45.0,30.12,NNW,343,0.0,1.0,66,0.00,,,0.00,,2013-06-05 12:22:00,
2013-06-05 08:32:00,57.0,45.0,30.12,NE,54,0.0,4.0,63,0.00,,,0.00,,2013-06-05 12:32:00,
2013-06-05 08:44:00,57.0,45.0,30.12,NE,54,0.0,4.0,63,0.00,,,0.00,,2013-06-05 12:44:00,
2013-06-05 08:52:00,58.0,45.0,30.12,SSE,163,0.0,6.0,63,0.00,,,0.00,,2013-06-05 12:52:00,
2013-06-05 09:02:00,60.0,47.0,30.12,East,96,0.0,6.0,61,0.00,,,0.00,,2013-06-05 13:02:00,
2013-06-05 09:12:00,60.0,47.0,30.12,East,96,0.0,6.0,61,0.00,,,0.00,,2013-06-05 13:12:00,
2013-06-05 09:22:00,60.0,47.0,30.13,ESE,105,0.0,3.0,62,0.00,,,0.00,,2013-06-05 13:22:00,
2013-06-05 09:33:00,61.0,47.0,30.13,ESE,103,1.0,8.0,61,0.00,,,0.00,,2013-06-05 13:33:00,
2013-06-05 09:42:00,62.0,48.0,30.13,SSW,204,0.0,5.0,60,0.00,,,0.00,,2013-06-05 13:42:00,
2013-06-05 09:52:00,62.0,48.0,30.13,SSW,204,0.0,5.0,60,0.00,,,0.00,,2013-06-05 13:52:00,
2013-06-05 10:02:00,62.0,47.0,30.13,SE,142,0.0,4.0,58,0.00,,,0.00,,2013-06-05 14:02:00,
2013-06-05 10:12:00,62.0,47.0,30.13,SE,142,0.0,4.0,58,0.00,,,0.00,,2013-06-05 14:12:00,
2013-06-05 10:22:00,63.0,48.0,30.13,South,171,0.0,7.0,58,0.00,,,0.00,,2013-06-05 14:22:00,
2013-06-05 10:32:00,63.0,49.0,30.12,NNE,19,1.0,7.0,60,0.00,,,0.00,,2013-06-05 14:32:00,
2013-06-05 10:42:00,63.0,49.0,30.12,NNE,19,1.0,7.0,60,0.00,,,0.00,,2013-06-05 14:42:00,
2013-06-05 10:52:00,64.0,47.0,30.12,ESE,103,0.0,5.0,55,0.00,,,0.00,,2013-06-05 14:52:00,
2013-06-05 11:03:00,65.0,51.0,30.12,SE,131,0.0,6.0,60,0.00,,,0.00,,2013-06-05 15:03:00,
2013-06-05 11:12:00,65.0,51.0,30.12,SE,131,0.0,6.0,60,0.00,,,0.00,,2013-06-05 15:12:00,
2013-06-05 11:22:00,66.0,49.0,30.12,SE,140,2.0,5.0,55,0.00,,,0.00,,2013-06-05 15:22:00,
2013-06-05 11:33:00,66.0,50.0,30.11,ESE,123,0.0,5.0,56,0.00,,,0.00,,2013-06-05 15:33:00,
2013-06-05 11:42:00,67.0,50.0,30.11,SSW,200,1.0,7.0,55,0.00,,,0.00,,2013-06-05 15:42:00,
2013-06-05 11:53:00,67.0,50.0,30.11,SSW,200,1.0,7.0,55,0.00,,,0.00,,2013-06-05 15:53:00,
2013-06-05 12:03:00,67.0,50.0,30.10,ESE,122,1.0,7.0,55,0.00,,,0.00,,2013-06-05 16:03:00,
2013-06-05 12:12:00,67.0,50.0,30.10,ESE,122,1.0,7.0,55,0.00,,,0.00,,2013-06-05 16:12:00,
2013-06-05 12:23:00,67.0,50.0,30.10,East,92,1.0,5.0,55,0.00,,,0.00,,2013-06-05 16:23:00,
2013-06-05 12:32:00,68.0,49.0,30.10,SE,136,1.0,6.0,51,0.00,,,0.00,,2013-06-05 16:32:00,
2013-06-05 12:42:00,69.0,50.0,30.09,SE,130,0.0,6.0,51,0.00,,,0.00,,2013-06-05 16:42:00,
2013-06-05 12:54:00,69.0,50.0,30.09,SE,130,0.0,6.0,51,0.00,,,0.00,,2013-06-05 16:54:00,
2013-06-05 13:02:00,69.0,51.0,30.09,East,81,0.0,4.0,53,0.00,,,0.00,,2013-06-05 17:02:00,
2013-06-05 13:13:00,69.0,51.0,30.09,East,81,0.0,4.0,53,0.00,,,0.00,,2013-06-05 17:13:00,
2013-06-05 13:22:00,69.0,50.0,30.08,East,100,1.0,6.0,50,0.00,,,0.00,,2013-06-05 17:22:00,
2013-06-05 13:33:00,69.0,49.0,30.08,West,281,0.0,6.0,49,0.00,,,0.00,,2013-06-05 17:33:00,
2013-06-05 13:43:00,69.0,49.0,30.07,ESE,110,1.0,7.0,49,0.00,,,0.00,,2013-06-05 17:43:00,
2013-06-05 13:52:00,69.0,49.0,30.07,ESE,110,1.0,7.0,49,0.00,,,0.00,,2013-06-05 17:52:00,
2013-06-05 14:02:00,69.0,50.0,30.07,SSW,207,1.0,5.0,51,0.00,,,0.00,,2013-06-05 18:02:00,
2013-06-05 14:12:00,69.0,50.0,30.07,SSW,207,1.0,5.0,51,0.00,,,0.00,,2013-06-05 18:12:00,
2013-06-05 14:22:00,70.0,50.0,30.07,SSW,202,0.0,3.0,49,0.00,,,0.00,,2013-06-05 18:22:00,
2013-06-05 14:32:00,70.0,52.0,30.06,East,89,0.0,7.0,52,0.00,,,0.00,,2013-06-05 18:32:00,
2013-06-05 14:42:00,71.0,51.0,30.05,South,175,3.0,9.0,49,0.00,,,0.00,,2013-06-05 18:42:00,
2013-06-05 14:52:00,71.0,51.0,30.05,South,175,3.0,9.0,49,0.00,,,0.00,,2013-06-05 18:52:00,
2013-06-05 15:03:00,71.0,52.0,30.05,SE,125,0.0,9.0,51,0.00,,,0.00,,2013-06-05 19:03:00,
2013-06-05 15:12:00,71.0,52.0,30.05,SE,125,0.0,9.0,51,0.00,,,0.00,,2013-06-05 19:12:00,
2013-06-05 15:23:00,71.0,51.0,30.04,ENE,57,1.0,7.0,49,0.00,,,0.00,,2013-06-05 19:23:00,
2013-06-05 15:32:00,72.0,51.0,30.04,SE,125,2.0,8.0,47,0.00,,,0.00,,2013-06-05 19:32:00,
2013-06-05 15:42:00,72.0,51.0,30.04,SE,125,2.0,8.0,47,0.00,,,0.00,,2013-06-05 19:42:00,
2013-06-05 15:52:00,71.0,51.0,30.04,South,173,1.0,6.0,49,0.00,,,0.00,,2013-06-05 19:52:00,
2013-06-05 16:03:00,71.0,49.0,30.05,SW,235,1.0,6.0,45,0.00,,,0.00,,2013-06-05 20:03:00,
2013-06-05 16:12:00,71.0,49.0,30.05,ESE,108,1.0,10.0,46,0.00,,,0.00,,2013-06-05 20:12:00,
2013-06-05 16:23:00,71.0,49.0,30.05,ESE,108,1.0,10.0,46,0.00,,,0.00,,2013-06-05 20:23:00,
2013-06-05 16:32:00,71.0,51.0,30.05,SSW,207,0.0,6.0,49,0.00,,,0.00,,2013-06-05 20:32:00,
2013-06-05 16:42:00,72.0,52.0,30.05,South,176,0.0,7.0,49,0.00,,,0.00,,2013-06-05 20:42:00,
2013-06-05 16:52:00,72.0,52.0,30.05,South,176,0.0,7.0,49,0.00,,,0.00,,2013-06-05 20:52:00,
2013-06-05 17:02:00,71.0,50.0,30.05,SW,220,2.0,8.0,47,0.00,,,0.00,,2013-06-05 21:02:00,
2013-06-05 17:12:00,72.0,53.0,30.05,SSE,165,0.0,6.0,51,0.00,,,0.00,,2013-06-05 21:12:00,
2013-06-05 17:22:00,72.0,53.0,30.05,SSE,165,0.0,6.0,51,0.00,,,0.00,,2013-06-05 21:22:00,
2013-06-05 17:33:00,72.0,53.0,30.05,SSE,165,0.0,6.0,51,0.00,,,0.00,,2013-06-05 21:33:00,
2013-06-05 17:43:00,72.0,53.0,30.05,SSE,165,0.0,6.0,51,0.00,,,0.00,,2013-06-05 21:43:00,
2013-06-05 17:53:00,72.0,53.0,30.05,SSE,165,0.0,6.0,51,0.00,,,0.00,,2013-06-05 21:53:00,
2013-06-05 18:22:00,72.0,49.0,30.05,ESE,119,0.0,5.0,45,0.00,,,0.00,,2013-06-05 22:22:00,
2013-06-05 18:33:00,72.0,49.0,30.05,ESE,119,0.0,5.0,45,0.00,,,0.00,,2013-06-05 22:33:00,
2013-06-05 18:42:00,72.0,49.0,30.03,East,101,1.0,5.0,44,0.00,,,0.00,,2013-06-05 22:42:00,
2013-06-05 18:52:00,72.0,49.0,30.03,East,101,1.0,5.0,44,0.00,,,0.00,,2013-06-05 22:52:00,
2013-06-05 19:02:00,72.0,49.0,30.03,East,101,1.0,5.0,44,0.00,,,0.00,,2013-06-05 23:02:00,
2013-06-05 19:12:00,70.0,49.0,30.04,ESE,117,0.0,3.0,48,0.00,,,0.00,,2013-06-05 23:12:00,
2013-06-05 19:22:00,70.0,49.0,30.04,ESE,117,0.0,3.0,48,0.00,,,0.00,,2013-06-05 23:22:00,
2013-06-05 19:32:00,69.0,48.0,30.04,East,100,0.0,2.0,48,0.00,,,0.00,,2013-06-05 23:32:00,
2013-06-05 19:42:00,69.0,48.0,30.04,East,100,0.0,2.0,48,0.00,,,0.00,,2013-06-05 23:42:00,
2013-06-05 19:53:00,69.0,50.0,30.03,SE,138,0.0,1.0,50,0.00,,,0.00,,2013-06-05 23:53:00,
2013-06-05 20:02:00,67.0,48.0,30.03,SE,138,0.0,1.0,51,0.00,,,0.00,,2013-06-06 00:02:00,
2013-06-05 20:12:00,67.0,48.0,30.03,SE,138,0.0,1.0,51,0.00,,,0.00,,2013-06-06 00:12:00,
2013-06-05 20:22:00,66.0,48.0,30.04,SE,124,0.0,2.0,52,0.00,,,0.00,,2013-06-06 00:22:00,
2013-06-05 20:32:00,65.0,49.0,30.03,ESE,119,0.0,1.0,56,0.00,,,0.00,,2013-06-06 00:32:00,
2013-06-05 20:42:00,65.0,49.0,30.03,ESE,119,0.0,1.0,56,0.00,,,0.00,,2013-06-06 00:42:00,
2013-06-05 20:52:00,63.0,48.0,30.03,ESE,119,0.0,0.0,57,0.00,,,0.00,,2013-06-06 00:52:00,
2013-06-05 21:02:00,63.0,48.0,30.04,ESE,119,0.0,1.0,59,0.00,,,0.00,,2013-06-06 01:02:00,
2013-06-05 21:12:00,63.0,48.0,30.04,ESE,119,0.0,1.0,59,0.00,,,0.00,,2013-06-06 01:12:00,
2013-06-05 21:22:00,62.0,48.0,30.04,ESE,119,0.0,0.0,60,0.00,,,0.00,,2013-06-06 01:22:00,
2013-06-05 21:32:00,61.0,48.0,30.05,ESE,119,0.0,0.0,62,0.00,,,0.00,,2013-06-06 01:32:00,
2013-06-05 21:42:00,60.0,48.0,30.05,ESE,119,0.0,0.0,65,0.00,,,0.00,,2013-06-06 01:42:00,
2013-06-05 21:52:00,60.0,48.0,30.05,ESE,119,0.0,0.0,65,0.00,,,0.00,,2013-06-06 01:52:00,
2013-06-05 22:02:00,59.0,47.0,30.06,ESE,119,0.0,0.0,65,0.00,,,0.00,,2013-06-06 02:02:00,
2013-06-05 22:12:00,59.0,47.0,30.06,ESE,119,0.0,0.0,65,0.00,,,0.00,,2013-06-06 02:12:00,
2013-06-05 22:22:00,58.0,47.0,30.05,ESE,119,0.0,0.0,68,0.00,,,0.00,,2013-06-06 02:22:00,
2013-06-05 22:32:00,58.0,48.0,30.05,ESE,119,0.0,0.0,70,0.00,,,0.00,,2013-06-06 02:32:00,
2013-06-05 22:42:00,58.0,48.0,30.05,ESE,119,0.0,0.0,70,0.00,,,0.00,,2013-06-06 02:42:00,
2013-06-05 22:52:00,58.0,48.0,30.05,ESE,119,0.0,0.0,70,0.00,,,0.00,,2013-06-06 02:52:00,
2013-06-05 23:02:00,57.0,48.0,30.06,ESE,119,0.0,0.0,72,0.00,,,0.00,,2013-06-06 03:02:00,
2013-06-05 23:12:00,57.0,48.0,30.06,ESE,119,0.0,0.0,72,0.00,,,0.00,,2013-06-06 03:12:00,
2013-06-05 23:22:00,56.0,47.0,30.05,ESE,119,0.0,0.0,73,0.00,,,0.00,,2013-06-06 03:22:00,
2013-06-05 23:33:00,56.0,48.0,30.05,ESE,119,0.0,0.0,74,0.00,,,0.00,,2013-06-06 03:33:00,
2013-06-05 23:43:00,56.0,48.0,30.05,ESE,119,0.0,0.0,74,0.00,,,0.00,,2013-06-06 03:43:00,
2013-06-05 23:52:00,55.0,47.0,30.06,ESE,119,0.0,0.0,74,0.00,,,0.00,,2013-06-06 03:52:00,